Location: Bocianicha
(51.5066°N, 19.2563°E)
Time: 13:58:51
(UTC+00:00)

USA 229 DEB - Pass Details

Date: 15 June 2025
Orbit: 852 x 1359 km, 63.4° (Epoch: 26 June)

Event Time Altitude Azimuth Distance (km) Brightness Sun altitude
Rises 00:10:46 0° 314° (NW) 3,936 7.0 -12.8°
Reaches altitude 10° 00:13:21 10° 313° (NW) 3,045 6.4 -12.6°
Maximum altitude 00:20:40 69° 232° (SW) 1,326 4.0 -12.2°
Drops below altitude 10° 00:28:45 10° 152° (SSE) 3,348 5.9 -11.7°
Sets 00:31:42 0° 150° (SSE) 4,350 6.5 -11.5°
